Date/Time,Mode,xCO2,QF,QC Note
,,,,
12/20/2008 0:00,xCO2_Air,394.6,4,Bad air measurement due to pressure problem
12/20/2008 3:00,xCO2_Air,394.1,4,Bad air measurement due to pressure problem
12/20/2008 6:18,xCO2_Air,396.2,4,Bad air measurement due to pressure problem
12/20/2008 9:18,xCO2_Air,575.0,4,Bad air measurement due to pressure problem
12/20/2008 12:18,xCO2_Air,454.8,4,Bad air measurement due to pressure problem
12/20/2008 15:18,xCO2_Air,457.1,4,Bad air measurement due to pressure problem
12/20/2008 18:18,xCO2_Air,456.4,4,Bad air measurement due to pressure problem
12/20/2008 21:18,xCO2_Air,457.4,4,Bad air measurement due to pressure problem
12/21/2008 0:18,xCO2_Air,461.9,4,Bad air measurement due to pressure problem
12/21/2008 3:18,xCO2_Air,460.1,4,Bad air measurement due to pressure problem
12/21/2008 6:18,xCO2_Air,459.3,4,Bad air measurement due to pressure problem
12/21/2008 9:02,xCO2_Air,425.4,4,Bad air measurement due to pressure problem
12/21/2008 12:01,xCO2_Air,459.2,4,Bad air measurement due to pressure problem
12/21/2008 15:18,xCO2_Air,459.2,4,Bad air measurement due to pressure problem
12/21/2008 18:18,xCO2_Air,458.2,4,Bad air measurement due to pressure problem
12/21/2008 21:18,xCO2_Air,441.0,4,Bad air measurement due to pressure problem
12/22/2008 0:18,xCO2_Air,455.9,4,Bad air measurement due to pressure problem
12/22/2008 3:18,xCO2_Air,454.6,4,Bad air measurement due to pressure problem
12/22/2008 6:18,xCO2_Air,450.5,4,Bad air measurement due to pressure problem
12/22/2008 9:18,xCO2_Air,449.8,4,Bad air measurement due to pressure problem
12/22/2008 12:18,xCO2_Air,448.3,4,Bad air measurement due to pressure problem
12/22/2008 15:18,xCO2_Air,443.0,4,Bad air measurement due to pressure problem
12/22/2008 18:18,xCO2_Air,443.7,4,Bad air measurement due to pressure problem
12/22/2008 21:18,xCO2_Air,451.0,4,Bad air measurement due to pressure problem
12/23/2008 0:18,xCO2_Air,444.6,4,Bad air measurement due to pressure problem
12/23/2008 3:18,xCO2_Air,439.6,4,Bad air measurement due to pressure problem
12/23/2008 6:18,xCO2_Air,430.5,4,Bad air measurement due to pressure problem
12/23/2008 9:18,xCO2_Air,263.6,4,Bad air measurement due to pressure problem
12/23/2008 12:18,xCO2_Air,427.5,4,Bad air measurement due to pressure problem
12/23/2008 15:18,xCO2_Air,417.7,4,Bad air measurement due to pressure problem
12/23/2008 18:18,xCO2_Air,417.9,4,Bad air measurement due to pressure problem
12/23/2008 21:18,xCO2_Air,417.4,4,Bad air measurement due to pressure problem
12/24/2008 0:18,xCO2_Air,420.5,4,Bad air measurement due to pressure problem
12/24/2008 3:18,xCO2_Air,422.8,4,Bad air measurement due to pressure problem
12/24/2008 6:18,xCO2_Air,422.4,4,Bad air measurement due to pressure problem
12/24/2008 9:18,xCO2_Air,423.7,4,Bad air measurement due to pressure problem
12/24/2008 12:18,xCO2_Air,425.3,4,Bad air measurement due to pressure problem
12/24/2008 15:18,xCO2_Air,424.9,4,Bad air measurement due to pressure problem
12/24/2008 18:18,xCO2_Air,421.0,4,Bad air measurement due to pressure problem
12/24/2008 21:18,xCO2_Air,415.3,4,Bad air measurement due to pressure problem
12/25/2008 0:18,xCO2_Air,419.8,4,Bad air measurement due to pressure problem
1/1/2009 6:18,xCO2_Air,397.0,4,Bad air measurement due to pressure problem
1/1/2009 9:18,xCO2_Air,396.9,4,Bad air measurement due to pressure problem
1/1/2009 12:18,xCO2_Air,397.0,4,Bad air measurement due to pressure problem
1/1/2009 15:18,xCO2_Air,560.8,4,Bad air measurement due to pressure problem
1/1/2009 18:18,xCO2_Air,436.8,4,Bad air measurement due to pressure problem
1/1/2009 21:18,xCO2_Air,673.1,4,Bad air measurement due to pressure problem
1/2/2009 0:18,xCO2_Air,748.2,4,Bad air measurement due to pressure problem
1/2/2009 3:18,xCO2_Air,855.0,4,Bad air measurement due to pressure problem
1/2/2009 6:18,xCO2_Air,1011.4,4,Bad air measurement due to pressure problem
1/2/2009 9:18,xCO2_Air,960.9,4,Bad air measurement due to pressure problem
1/2/2009 12:18,xCO2_Air,888.8,4,Bad air measurement due to pressure problem
1/2/2009 15:18,xCO2_Air,634.4,4,Bad air measurement due to pressure problem
1/11/2009 15:18,xCO2_Air,396.7,4,Bad air measurement due to pressure problem
1/11/2009 18:16,xCO2_Air,395.1,4,Bad air measurement due to pressure problem
1/24/2009 18:18,xCO2_Air,408.1,4,Bad air measurement due to pressure problem
1/24/2009 21:18,xCO2_Air,417.8,4,Bad air measurement due to pressure problem
1/25/2009 0:18,xCO2_Air,415.5,4,Bad air measurement due to pressure problem
1/25/2009 3:18,xCO2_Air,408.7,4,Bad air measurement due to pressure problem
1/25/2009 6:18,xCO2_Air,401.3,4,Bad air measurement due to pressure problem
1/25/2009 9:18,xCO2_Air,404.9,4,Bad air measurement due to pressure problem
1/25/2009 12:18,xCO2_Air,406.1,4,Bad air measurement due to pressure problem
1/25/2009 15:18,xCO2_Air,407.7,4,Bad air measurement due to pressure problem
1/25/2009 18:18,xCO2_Air,404.3,4,Bad air measurement due to pressure problem
1/25/2009 21:18,xCO2_Air,400.1,4,Bad air measurement due to pressure problem
1/26/2009 0:18,xCO2_Air,401.3,4,Bad air measurement due to pressure problem
1/26/2009 3:18,xCO2_Air,402.4,4,Bad air measurement due to pressure problem
1/26/2009 6:18,xCO2_Air,404.1,4,Bad air measurement due to pressure problem
1/26/2009 9:18,xCO2_Air,407.5,4,Bad air measurement due to pressure problem
1/26/2009 12:18,xCO2_Air,405.6,4,Bad air measurement due to pressure problem
1/26/2009 15:18,xCO2_Air,404.4,4,Bad air measurement due to pressure problem
1/26/2009 18:18,xCO2_Air,408.3,4,Bad air measurement due to pressure problem
1/26/2009 21:18,xCO2_Air,402.7,4,Bad air measurement due to pressure problem
1/27/2009 0:18,xCO2_Air,401.4,4,Bad air measurement due to pressure problem
1/27/2009 3:18,xCO2_Air,401.7,4,Bad air measurement due to pressure problem
1/27/2009 6:18,xCO2_Air,401.1,4,Bad air measurement due to pressure problem
1/27/2009 9:18,xCO2_Air,401.8,4,Bad air measurement due to pressure problem
1/27/2009 12:18,xCO2_Air,402.4,4,Bad air measurement due to pressure problem
1/27/2009 15:18,xCO2_Air,399.8,4,Bad air measurement due to pressure problem
1/27/2009 18:18,xCO2_Air,401.1,4,Bad air measurement due to pressure problem
1/27/2009 21:18,xCO2_Air,401.7,4,Bad air measurement due to pressure problem
1/28/2009 0:18,xCO2_Air,399.7,4,Bad air measurement due to pressure problem
1/28/2009 3:18,xCO2_Air,402.1,4,Bad air measurement due to pressure problem
1/28/2009 6:18,xCO2_Air,406.7,4,Bad air measurement due to pressure problem
1/28/2009 9:18,xCO2_Air,406.8,4,Bad air measurement due to pressure problem
1/28/2009 12:18,xCO2_Air,407.8,4,Bad air measurement due to pressure problem
1/28/2009 15:18,xCO2_Air,400.9,4,Bad air measurement due to pressure problem
1/28/2009 18:18,xCO2_Air,410.4,4,Bad air measurement due to pressure problem
1/28/2009 21:18,xCO2_Air,409.8,4,Bad air measurement due to pressure problem
1/29/2009 0:18,xCO2_Air,414.9,4,Bad air measurement due to pressure problem
1/29/2009 3:18,xCO2_Air,418.0,4,Bad air measurement due to pressure problem
1/29/2009 6:18,xCO2_Air,417.0,4,Bad air measurement due to pressure problem
1/29/2009 9:18,xCO2_Air,407.5,4,Bad air measurement due to pressure problem
1/29/2009 12:18,xCO2_Air,396.6,4,Bad air measurement due to pressure problem
1/29/2009 15:18,xCO2_Air,392.6,4,Bad air measurement due to pressure problem
1/29/2009 18:18,xCO2_Air,391.1,4,Bad air measurement due to pressure problem
1/29/2009 21:18,xCO2_Air,392.4,4,Bad air measurement due to pressure problem
1/30/2009 0:18,xCO2_Air,393.4,4,Bad air measurement due to pressure problem
1/30/2009 3:18,xCO2_Air,394.0,4,Bad air measurement due to pressure problem
1/30/2009 6:18,xCO2_Air,396.0,4,Bad air measurement due to pressure problem
1/30/2009 9:18,xCO2_Air,397.9,4,Bad air measurement due to pressure problem
1/30/2009 12:18,xCO2_Air,397.9,4,Bad air measurement due to pressure problem
1/30/2009 15:18,xCO2_Air,400.3,4,Bad air measurement due to pressure problem
1/30/2009 18:18,xCO2_Air,401.0,4,Bad air measurement due to pressure problem
1/30/2009 21:18,xCO2_Air,398.1,4,Bad air measurement due to pressure problem
1/31/2009 0:18,xCO2_Air,387.9,4,Bad air measurement due to pressure problem
1/31/2009 3:18,xCO2_Air,394.2,4,Bad air measurement due to pressure problem
1/31/2009 6:18,xCO2_Air,394.3,4,Bad air measurement due to pressure problem
1/31/2009 9:18,xCO2_Air,395.4,4,Bad air measurement due to pressure problem
1/31/2009 12:18,xCO2_Air,394.3,4,Bad air measurement due to pressure problem
1/31/2009 15:18,xCO2_Air,391.6,4,Bad air measurement due to pressure problem
1/31/2009 18:18,xCO2_Air,393.9,4,Bad air measurement due to pressure problem
1/31/2009 21:18,xCO2_Air,392.9,4,Bad air measurement due to pressure problem
2/1/2009 0:18,xCO2_Air,393.6,4,Bad air measurement due to pressure problem
2/1/2009 3:18,xCO2_Air,390.4,4,Bad air measurement due to pressure problem
2/1/2009 6:18,xCO2_Air,391.7,4,Bad air measurement due to pressure problem
2/1/2009 9:18,xCO2_Air,395.0,4,Bad air measurement due to pressure problem
2/1/2009 12:18,xCO2_Air,397.0,4,Bad air measurement due to pressure problem
2/1/2009 15:18,xCO2_Air,393.1,4,Bad air measurement due to pressure problem
2/1/2009 18:18,xCO2_Air,392.6,4,Bad air measurement due to pressure problem
2/1/2009 21:18,xCO2_Air,391.6,4,Bad air measurement due to pressure problem
2/2/2009 0:18,xCO2_Air,394.1,4,Bad air measurement due to pressure problem
2/2/2009 3:18,xCO2_Air,395.6,4,Bad air measurement due to pressure problem
2/2/2009 6:18,xCO2_Air,400.6,4,Bad air measurement due to pressure problem
2/2/2009 9:18,xCO2_Air,398.9,4,Bad air measurement due to pressure problem
2/2/2009 12:18,xCO2_Air,402.5,4,Bad air measurement due to pressure problem
2/2/2009 15:18,xCO2_Air,405.9,4,Bad air measurement due to pressure problem
2/2/2009 18:18,xCO2_Air,407.4,4,Bad air measurement due to pressure problem
2/2/2009 21:18,xCO2_Air,405.5,4,Bad air measurement due to pressure problem
2/3/2009 0:18,xCO2_Air,392.8,4,Bad air measurement due to pressure problem
2/3/2009 3:18,xCO2_Air,394.1,4,Bad air measurement due to pressure problem
2/3/2009 6:18,xCO2_Air,383.5,4,Bad air measurement due to pressure problem
2/3/2009 9:18,xCO2_Air,394.7,4,Bad air measurement due to pressure problem
2/3/2009 12:18,xCO2_Air,395.5,4,Bad air measurement due to pressure problem
2/3/2009 15:18,xCO2_Air,393.0,4,Bad air measurement due to pressure problem
2/3/2009 18:18,xCO2_Air,395.5,4,Bad air measurement due to pressure problem
2/3/2009 21:18,xCO2_Air,402.8,4,Bad air measurement due to pressure problem
2/4/2009 0:18,xCO2_Air,399.4,4,Bad air measurement due to pressure problem
2/4/2009 3:18,xCO2_Air,397.8,4,Bad air measurement due to pressure problem
2/4/2009 6:18,xCO2_Air,398.5,4,Bad air measurement due to pressure problem
2/4/2009 9:18,xCO2_Air,396.8,4,Bad air measurement due to pressure problem
2/4/2009 12:18,xCO2_Air,395.0,4,Bad air measurement due to pressure problem
2/4/2009 15:18,xCO2_Air,392.1,4,Bad air measurement due to pressure problem
2/4/2009 18:18,xCO2_Air,392.6,4,Bad air measurement due to pressure problem
2/4/2009 21:18,xCO2_Air,392.1,4,Bad air measurement due to pressure problem
2/5/2009 0:18,xCO2_Air,390.5,4,Bad air measurement due to pressure problem
2/5/2009 3:18,xCO2_Air,390.8,4,Bad air measurement due to pressure problem
2/5/2009 6:18,xCO2_Air,391.1,4,Bad air measurement due to pressure problem
2/5/2009 9:18,xCO2_Air,394.0,4,Bad air measurement due to pressure problem
2/5/2009 12:18,xCO2_Air,392.3,4,Bad air measurement due to pressure problem
2/5/2009 15:18,xCO2_Air,391.0,4,Bad air measurement due to pressure problem
2/5/2009 18:18,xCO2_Air,389.6,4,Bad air measurement due to pressure problem
2/5/2009 21:18,xCO2_Air,388.8,4,Bad air measurement due to pressure problem
2/6/2009 0:18,xCO2_Air,387.6,4,Bad air measurement due to pressure problem
2/6/2009 3:18,xCO2_Air,386.4,4,Bad air measurement due to pressure problem
2/6/2009 6:18,xCO2_Air,386.9,4,Bad air measurement due to pressure problem
2/6/2009 9:18,xCO2_Air,386.7,4,Bad air measurement due to pressure problem
2/6/2009 12:18,xCO2_Air,386.5,4,Bad air measurement due to pressure problem
2/6/2009 15:18,xCO2_Air,385.4,4,Bad air measurement due to pressure problem
2/6/2009 18:18,xCO2_Air,384.3,4,Bad air measurement due to pressure problem
2/6/2009 21:18,xCO2_Air,383.4,4,Bad air measurement due to pressure problem
2/7/2009 0:18,xCO2_Air,382.9,4,Bad air measurement due to pressure problem
2/7/2009 3:18,xCO2_Air,383.8,4,Bad air measurement due to pressure problem
2/7/2009 6:18,xCO2_Air,382.8,4,Bad air measurement due to pressure problem
2/7/2009 9:18,xCO2_Air,384.1,4,Bad air measurement due to pressure problem
2/7/2009 12:18,xCO2_Air,382.3,4,Bad air measurement due to pressure problem
2/7/2009 15:18,xCO2_Air,387.9,4,Bad air measurement due to pressure problem
2/7/2009 18:18,xCO2_Air,387.6,4,Bad air measurement due to pressure problem
2/7/2009 21:18,xCO2_Air,382.3,4,Bad air measurement due to pressure problem
2/8/2009 0:18,xCO2_Air,385.1,4,Bad air measurement due to pressure problem
2/8/2009 3:18,xCO2_Air,387.9,4,Bad air measurement due to pressure problem
2/8/2009 6:18,xCO2_Air,387.1,4,Bad air measurement due to pressure problem
2/8/2009 9:18,xCO2_Air,388.7,4,Bad air measurement due to pressure problem
2/8/2009 12:18,xCO2_Air,390.4,4,Bad air measurement due to pressure problem
2/8/2009 15:18,xCO2_Air,394.7,4,Bad air measurement due to pressure problem
2/8/2009 18:18,xCO2_Air,391.8,4,Bad air measurement due to pressure problem
2/8/2009 21:18,xCO2_Air,390.3,4,Bad air measurement due to pressure problem
2/9/2009 0:18,xCO2_Air,388.4,4,Bad air measurement due to pressure problem
2/9/2009 3:18,xCO2_Air,389.5,4,Bad air measurement due to pressure problem
2/9/2009 6:18,xCO2_Air,388.5,4,Bad air measurement due to pressure problem
2/9/2009 9:18,xCO2_Air,385.9,4,Bad air measurement due to pressure problem
2/9/2009 12:18,xCO2_Air,388.1,4,Bad air measurement due to pressure problem
2/9/2009 15:18,xCO2_Air,382.8,4,Bad air measurement due to pressure problem
2/9/2009 18:18,xCO2_Air,381.5,4,Bad air measurement due to pressure problem
2/9/2009 21:18,xCO2_Air,380.9,4,Bad air measurement due to pressure problem
2/10/2009 0:18,xCO2_Air,379.6,4,Bad air measurement due to pressure problem
2/10/2009 3:18,xCO2_Air,381.7,4,Bad air measurement due to pressure problem
2/10/2009 6:18,xCO2_Air,380.1,4,Bad air measurement due to pressure problem
2/10/2009 9:18,xCO2_Air,380.6,4,Bad air measurement due to pressure problem
2/10/2009 12:18,xCO2_Air,381.7,4,Bad air measurement due to pressure problem
2/10/2009 15:18,xCO2_Air,379.2,4,Bad air measurement due to pressure problem
2/10/2009 18:18,xCO2_Air,381.7,4,Bad air measurement due to pressure problem
2/10/2009 21:18,xCO2_Air,381.3,4,Bad air measurement due to pressure problem
2/11/2009 0:18,xCO2_Air,380.4,4,Bad air measurement due to pressure problem
2/11/2009 3:18,xCO2_Air,382.0,4,Bad air measurement due to pressure problem
2/11/2009 6:18,xCO2_Air,386.5,4,Bad air measurement due to pressure problem
2/11/2009 9:18,xCO2_Air,383.0,4,Bad air measurement due to pressure problem
2/11/2009 12:18,xCO2_Air,385.0,4,Bad air measurement due to pressure problem
2/11/2009 15:18,xCO2_Air,389.2,4,Bad air measurement due to pressure problem
2/11/2009 18:18,xCO2_Air,398.1,4,Bad air measurement due to pressure problem
2/12/2009 21:18,xCO2_Air,406.5,4,Bad air measurement due to pressure problem
2/13/2009 0:18,xCO2_Air,402.2,4,Bad air measurement due to pressure problem
2/13/2009 3:18,xCO2_Air,399.7,4,Bad air measurement due to pressure problem
2/13/2009 6:18,xCO2_Air,398.7,4,Bad air measurement due to pressure problem
2/13/2009 9:18,xCO2_Air,384.3,4,Bad air measurement due to pressure problem
2/13/2009 12:18,xCO2_Air,379.4,4,Bad air measurement due to pressure problem
2/13/2009 15:18,xCO2_Air,376.6,4,Bad air measurement due to pressure problem
2/13/2009 18:18,xCO2_Air,379.2,4,Bad air measurement due to pressure problem
2/13/2009 21:18,xCO2_Air,376.2,4,Bad air measurement due to pressure problem
2/14/2009 0:18,xCO2_Air,378.8,4,Bad air measurement due to pressure problem
2/14/2009 3:18,xCO2_Air,381.2,4,Bad air measurement due to pressure problem
2/14/2009 6:18,xCO2_Air,381.8,4,Bad air measurement due to pressure problem
2/14/2009 9:18,xCO2_Air,383.9,4,Bad air measurement due to pressure problem
2/14/2009 12:18,xCO2_Air,382.3,4,Bad air measurement due to pressure problem
2/14/2009 15:18,xCO2_Air,380.8,4,Bad air measurement due to pressure problem
2/14/2009 18:18,xCO2_Air,381.2,4,Bad air measurement due to pressure problem
2/14/2009 21:18,xCO2_Air,382.1,4,Bad air measurement due to pressure problem
2/15/2009 0:18,xCO2_Air,377.2,4,Bad air measurement due to pressure problem
2/15/2009 3:18,xCO2_Air,378.0,4,Bad air measurement due to pressure problem
2/15/2009 6:18,xCO2_Air,380.7,4,Bad air measurement due to pressure problem
2/15/2009 9:18,xCO2_Air,381.2,4,Bad air measurement due to pressure problem
2/15/2009 12:18,xCO2_Air,380.5,4,Bad air measurement due to pressure problem
2/15/2009 15:18,xCO2_Air,377.4,4,Bad air measurement due to pressure problem
2/15/2009 18:18,xCO2_Air,378.0,4,Bad air measurement due to pressure problem
2/15/2009 21:18,xCO2_Air,373.5,4,Bad air measurement due to pressure problem
2/16/2009 0:18,xCO2_Air,371.7,4,Bad air measurement due to pressure problem
2/16/2009 3:18,xCO2_Air,372.5,4,Bad air measurement due to pressure problem
2/16/2009 6:18,xCO2_Air,373.5,4,Bad air measurement due to pressure problem
2/16/2009 9:18,xCO2_Air,376.8,4,Bad air measurement due to pressure problem
2/16/2009 12:18,xCO2_Air,376.7,4,Bad air measurement due to pressure problem
2/16/2009 15:18,xCO2_Air,375.3,4,Bad air measurement due to pressure problem
2/16/2009 18:18,xCO2_Air,374.5,4,Bad air measurement due to pressure problem
2/16/2009 21:18,xCO2_Air,371.7,4,Bad air measurement due to pressure problem
2/17/2009 0:18,xCO2_Air,371.0,4,Bad air measurement due to pressure problem
2/17/2009 3:18,xCO2_Air,372.0,4,Bad air measurement due to pressure problem
2/17/2009 6:18,xCO2_Air,372.0,4,Bad air measurement due to pressure problem
2/17/2009 9:18,xCO2_Air,372.5,4,Bad air measurement due to pressure problem
2/17/2009 12:18,xCO2_Air,370.7,4,Bad air measurement due to pressure problem
2/17/2009 15:18,xCO2_Air,368.5,4,Bad air measurement due to pressure problem
2/17/2009 18:18,xCO2_Air,365.6,4,Bad air measurement due to pressure problem
2/17/2009 21:18,xCO2_Air,363.3,4,Bad air measurement due to pressure problem
2/18/2009 0:18,xCO2_Air,363.2,4,Bad air measurement due to pressure problem
2/18/2009 3:18,xCO2_Air,362.3,4,Bad air measurement due to pressure problem
2/18/2009 6:18,xCO2_Air,361.4,4,Bad air measurement due to pressure problem
2/18/2009 9:18,xCO2_Air,366.0,4,Bad air measurement due to pressure problem
2/18/2009 12:18,xCO2_Air,369.6,4,Bad air measurement due to pressure problem
2/18/2009 15:18,xCO2_Air,361.4,4,Bad air measurement due to pressure problem
2/18/2009 18:18,xCO2_Air,355.0,4,Bad air measurement due to pressure problem
2/18/2009 21:18,xCO2_Air,357.9,4,Bad air measurement due to pressure problem
2/19/2009 0:18,xCO2_Air,364.1,4,Bad air measurement due to pressure problem
2/19/2009 3:18,xCO2_Air,361.9,4,Bad air measurement due to pressure problem
2/19/2009 6:18,xCO2_Air,364.5,4,Bad air measurement due to pressure problem
2/19/2009 9:18,xCO2_Air,378.2,4,Bad air measurement due to pressure problem
2/19/2009 12:18,xCO2_Air,384.4,4,Bad air measurement due to pressure problem
2/19/2009 15:18,xCO2_Air,378.4,4,Bad air measurement due to pressure problem
2/19/2009 18:18,xCO2_Air,371.6,4,Bad air measurement due to pressure problem
2/19/2009 21:18,xCO2_Air,374.4,4,Bad air measurement due to pressure problem
2/20/2009 0:18,xCO2_Air,374.3,4,Bad air measurement due to pressure problem
2/20/2009 3:18,xCO2_Air,374.4,4,Bad air measurement due to pressure problem
2/20/2009 6:18,xCO2_Air,370.8,4,Bad air measurement due to pressure problem
2/20/2009 9:18,xCO2_Air,371.0,4,Bad air measurement due to pressure problem
2/20/2009 12:18,xCO2_Air,370.5,4,Bad air measurement due to pressure problem
2/20/2009 15:18,xCO2_Air,370.0,4,Bad air measurement due to pressure problem
2/20/2009 18:18,xCO2_Air,364.3,4,Bad air measurement due to pressure problem
2/20/2009 21:18,xCO2_Air,361.5,4,Bad air measurement due to pressure problem
2/21/2009 0:18,xCO2_Air,335.9,4,Bad air measurement due to pressure problem
2/21/2009 3:18,xCO2_Air,329.7,4,Bad air measurement due to pressure problem
2/21/2009 6:18,xCO2_Air,339.0,4,Bad air measurement due to pressure problem
2/21/2009 9:18,xCO2_Air,336.4,4,Bad air measurement due to pressure problem
2/21/2009 12:18,xCO2_Air,338.5,4,Bad air measurement due to pressure problem
2/21/2009 15:18,xCO2_Air,340.7,4,Bad air measurement due to pressure problem
2/21/2009 18:18,xCO2_Air,332.7,4,Bad air measurement due to pressure problem
2/21/2009 21:18,xCO2_Air,324.9,4,Bad air measurement due to pressure problem
2/22/2009 0:18,xCO2_Air,327.8,4,Bad air measurement due to pressure problem
2/22/2009 3:18,xCO2_Air,322.7,4,Bad air measurement due to pressure problem
2/22/2009 6:18,xCO2_Air,324.3,4,Bad air measurement due to pressure problem
2/22/2009 9:18,xCO2_Air,331.5,4,Bad air measurement due to pressure problem
2/22/2009 12:18,xCO2_Air,334.7,4,Bad air measurement due to pressure problem
2/22/2009 15:18,xCO2_Air,332.7,4,Bad air measurement due to pressure problem
2/22/2009 18:18,xCO2_Air,330.7,4,Bad air measurement due to pressure problem
2/22/2009 21:18,xCO2_Air,330.8,4,Bad air measurement due to pressure problem
2/23/2009 0:18,xCO2_Air,328.8,4,Bad air measurement due to pressure problem
2/23/2009 3:18,xCO2_Air,337.4,4,Bad air measurement due to pressure problem
2/23/2009 6:18,xCO2_Air,325.7,4,Bad air measurement due to pressure problem
2/23/2009 9:18,xCO2_Air,337.9,4,Bad air measurement due to pressure problem
2/23/2009 12:18,xCO2_Air,341.4,4,Bad air measurement due to pressure problem
2/23/2009 15:18,xCO2_Air,338.2,4,Bad air measurement due to pressure problem
2/23/2009 18:18,xCO2_Air,340.0,4,Bad air measurement due to pressure problem
2/23/2009 21:18,xCO2_Air,339.8,4,Bad air measurement due to pressure problem
2/24/2009 0:18,xCO2_Air,342.7,4,Bad air measurement due to pressure problem
2/24/2009 3:18,xCO2_Air,346.5,4,Bad air measurement due to pressure problem
2/24/2009 6:18,xCO2_Air,343.3,4,Bad air measurement due to pressure problem
2/24/2009 9:18,xCO2_Air,343.1,4,Bad air measurement due to pressure problem
2/24/2009 12:18,xCO2_Air,344.0,4,Bad air measurement due to pressure problem
2/24/2009 15:18,xCO2_Air,346.5,4,Bad air measurement due to pressure problem
2/24/2009 18:18,xCO2_Air,341.8,4,Bad air measurement due to pressure problem
2/24/2009 21:18,xCO2_Air,339.4,4,Bad air measurement due to pressure problem
2/25/2009 0:18,xCO2_Air,343.4,4,Bad air measurement due to pressure problem
2/25/2009 3:18,xCO2_Air,344.9,4,Bad air measurement due to pressure problem
2/25/2009 6:18,xCO2_Air,340.4,4,Bad air measurement due to pressure problem
2/25/2009 9:18,xCO2_Air,339.7,4,Bad air measurement due to pressure problem
2/25/2009 12:18,xCO2_Air,342.3,4,Bad air measurement due to pressure problem
2/25/2009 15:18,xCO2_Air,343.3,4,Bad air measurement due to pressure problem
2/25/2009 18:18,xCO2_Air,340.2,4,Bad air measurement due to pressure problem
2/25/2009 21:18,xCO2_Air,333.2,4,Bad air measurement due to pressure problem
2/26/2009 0:18,xCO2_Air,334.3,4,Bad air measurement due to pressure problem
2/26/2009 3:18,xCO2_Air,342.6,4,Bad air measurement due to pressure problem
2/26/2009 6:18,xCO2_Air,349.6,4,Bad air measurement due to pressure problem
2/26/2009 9:18,xCO2_Air,338.3,4,Bad air measurement due to pressure problem